AEHF 1 (USA 214)

Satellite information

Favourite Embed

Satellite Type and Status

PAYLOADIN ORBIT

Key statistics

Satellite AEHF 1 (USA 214) at a glance.

Uptime

5608

Days in orbit

Revolutions

≈ 1.0

Per day

Orbit

OTHER

Other

Inclination

7.8

Latest

Satellite identification and parameters

Extended collection of information and parameters for AEHF 1 (USA 214).

Object identification

Identified? True

Debris? False

Object name: AEHF 1 (USA 214)

International designator: 2010-039A

Object number (NORAD): 36868

Object ID (CCSDS): 36868

Country: UNITED STATES OF AMERICA (US)

Current information (Y/N): Y

RCS size: LARGE

Orbital parameters

Period: 1436.118 minutes

Inclination: 7.7809 deg

SMA: 42165.147 km

Apoapsis: 35806.14 km

Periapsis: 35767.885 km

RAAN: 70.3422 deg

Eccentricy: 0.00045364

Argument of periapsis: 199.0449 deg

Mean anomaly: 153.5142 deg

Mean motion: 1.00270303 rev/day

Mean motion (dot): 0.00000165 rev/day2

B* drag term: 0.0 1/REarth

Two-line elements (TLE)

Creation date: Dec. 21, 2025, 3:42 a.m.

Reference frame: TEME

Reference center: EARTH

Epoch: Dec. 20, 2025, 8:13 p.m. UTC

TLE line 0: 0 AEHF 1 (USA 214)

TLE line 1: 1 36868U 10039A 25354.84249839 .00000165 00000-0 00000-0 0 9992

TLE line 2: 2 36868 7.7809 70.3422 0004536 199.0449 153.5142 1.00270303 51863

Live tracking on map

Real-time ground track for satellite AEHF 1 (USA 214).

In-orbit conjunctions

There are no conjunctions computed for AEHF 1 (USA 214), at the moment. Check back to stay up to date, as we update our databases every day.

Go to all conjunctions

Associated space launch

AEHF 1 (USA 214) was lifted into orbit during the mission ‘Atlas V 531 | AEHF-1 (USA-214)’, on board a Atlas V 531 space rocket.

The launch took place on Aug. 14, 2010, 11:07 a.m. from Space Launch Complex 41.

For more information about the launch, click the button.

Launch to space Atlas V 531 | AEHF-1 (USA-214)
Atlas V 531 | AEHF-1 (USA-214)

Agency: N/A

Status: Launch Successful

Launch date: Aug. 14, 2010, 11:07 a.m. UTC

Rocket: Atlas V 531

Launch pad: Space Launch Complex 41

Location: Cape Canaveral SFS, FL, USA

...

Latest news about this satellite

There are no fresh news available about this satellite. Check back as we update our databases every day.


Newsletter sign-up

Weekly statistics, charts and insights to help you stay on top of the space industry.